Location: Unspecified
(0.0000°N, 0.0000°E)
Time: 15:23:00
(UTC+00:00)

CZ-3C DEB - Pass Details

Date: 21 February 2026
Orbit: 380 x 28980 km, 20.3° (Epoch: 21 March)

Event Time Altitude Azimuth Distance (km) Brightness Sun altitude
Rises 02:16:47 0° 291° (WNW) 21,041 ? -57.6°
Enters shadow 02:45:52 - 291° (WNW) 14,654 ? -50.7°
Exits shadow 03:28:03 25° 124° (SE) 1,728 ? -40.5°
Drops below altitude 10° 03:29:22 10° 120° (ESE) 2,221 ? -40.2°
Sets 03:30:43 0° 118° (ESE) 2,814 ? -39.9°
